[[{"header":{"parameterUnit":"m.s-1","parameterCategory":1,"la1":30.2991,"la2":30.254,"lo1":-89.0895,"lo2":-89.0444,"dy":0.0017,"dx":0.0017,"nx":28,"ny":28,"refTime":"2025-05-28T21:00:00:Z","depth":0,"parameterNumber":2,"parameterNumberName":"U-component_of_WINDS"},"data":[0,0,0,0,0,0,0,0,0,0,0,0,0,0,0,0,0,0,0,0,0,0,0,0,0,0,0,0,0,0,0,0,0,0,0,0,0,0,0,0,0,0,0,0,0,0,0,0,0,0,0,0,0,0,0,0,0,0,3.312,3.312,0,3.3185,3.3185,3.3186,3.3149,3.3148,3.3146,3.3144,3.3217,3.322,3.3224,0,0,0,0,0,0,0,0,0,0,0,0,0,3.2972,3.2975,3.312,3.312,3.3121,3.3185,3.3185,3.3186,3.315,3.3147,3.3145,3.3143,3.3216,3.322,3.3224,0,0,0,0,0,0,0,0,0,0,0,0,0,3.3036,3.2976,3.3119,3.311,3.311,3.3184,3.3185,3.3187,3.315,3.3147,3.3145,3.3142,3.3214,3.322,3.3225,3.3314,0,0,3.3242,3.3244,0,0,0,0,0,0,0,0,3.3033,3.3042,3.3111,3.3111,3.3111,3.3156,3.316,3.3229,3.3151,3.3135,3.3144,3.3141,3.3199,3.3206,3.3224,3.3317,3.332,3.3242,3.3246,3.3248,3.3249,0,0,0,0,0,0,0,3.3028,3.3039,3.3146,3.3112,3.3112,3.3106,3.3112,3.3173,3.3182,3.3136,3.3134,3.3142,3.3199,3.3219,3.3226,3.3321,3.3242,3.3247,3.325,3.3252,3.3494,3.3497,0,0,0,0,0,0,3.3023,3.3035,3.3143,3.3147,3.3064,3.3111,3.3117,3.3144,3.3181,3.3184,3.3144,3.314,3.3211,3.3219,3.3228,3.3337,3.3248,3.3253,3.3256,3.3491,3.3495,3.3498,0,0,0,0,0,0,3.302,3.3033,3.3141,3.3091,3.3104,3.3116,3.3147,3.3147,3.3167,3.3187,3.3189,3.3162,3.3209,3.322,3.3293,3.3339,3.3255,3.326,3.3487,3.3492,3.3497,3.3553,0,0,0,0,0,0,3.3016,3.3032,3.3064,3.3092,3.3107,3.3202,3.3149,3.315,3.3176,3.3171,3.3205,3.3208,3.3208,3.3285,3.3298,3.3345,3.3265,3.3483,3.3489,3.3495,3.3548,3.3559,3.357,0,0,0,0,0,3.3011,3.3078,3.3066,3.3079,3.3146,3.3205,3.3214,3.3211,3.318,3.3213,3.3227,3.3207,3.3331,3.3293,3.3308,3.3356,3.348,3.3488,3.3495,3.3543,3.3557,3.3569,0,0,0,0,0,0,3.3057,3.3082,3.3068,3.3146,3.3173,3.3199,3.3241,3.3226,3.3264,3.3259,3.3255,3.3263,3.3339,3.3355,3.3312,3.3446,3.3401,3.3412,3.3433,3.3447,3.3458,3.3453,3.3269,0,0,0,0,0,3.3076,3.312,3.3139,3.3206,3.322,3.3228,3.3254,3.3249,3.3279,3.3291,3.3309,3.334,3.3387,3.3417,3.3461,3.3549,3.3558,3.359,3.3602,3.361,3.362,3.3672,3.3687,3.3521,3.3521,3.3521,0,0,3.3116,3.3135,3.3163,3.3216,3.3237,3.3285,3.3238,3.329,3.3327,3.3299,3.3369,3.3384,3.3419,3.3501,3.3537,3.3516,3.3668,3.362,3.3627,3.3631,3.368,3.3696,3.371,3.3526,3.3525,3.3525,0,0,3.3214,3.3231,3.329,3.3312,3.3344,3.3349,3.3363,3.3391,3.34,3.3469,3.3451,3.3495,3.3574,3.3601,3.3625,3.3736,3.3721,3.375,3.3809,3.3859,3.3872,3.3884,3.3926,3.3941,3.3759,3.376,3.376,0,3.3261,3.3329,3.3323,3.3377,3.3402,3.3378,3.344,3.3462,3.3507,3.3527,3.3501,3.3602,3.3624,3.3713,3.374,3.3759,3.3778,3.3747,3.387,3.3882,3.3893,3.3933,3.3949,3.3763,3.3763,3.3762,3.3762,0,3.3387,3.3435,3.3479,3.3523,3.3553,3.3611,3.3615,3.3647,3.3641,3.365,3.3723,3.3748,3.3798,3.3819,3.3813,3.3908,3.3894,3.387,3.3825,3.3912,3.395,3.3966,3.3768,3.3767,3.3766,3.3765,0,0,3.3515,3.3555,3.3571,3.3592,3.3627,3.3665,3.3724,3.377,3.38,3.3832,3.3883,3.3952,3.393,3.3957,3.3955,3.3999,3.4089,3.3969,3.397,3.3993,3.4199,3.4219,3.4237,3.4078,3.4081,3.4083,3.4197,0,3.3617,3.3716,3.3713,3.3807,3.3854,3.3832,3.3884,3.3912,3.3923,3.3966,3.3978,3.4028,3.3994,3.4011,3.4053,3.4069,3.4131,3.406,3.4129,3.4131,3.4122,3.4256,3.4277,3.4383,3.4212,3.4214,3.4216,0,3.3749,3.3786,3.3884,3.3914,3.3933,3.3979,3.4024,3.4064,3.4097,3.4102,3.4134,3.4125,3.4187,3.414,3.4228,3.4181,3.4209,3.4221,3.4225,3.4233,3.418,3.427,3.4416,3.4433,3.4239,3.4237,3.4236,0,3.3837,3.391,3.3979,3.3997,3.4033,3.4066,3.4083,3.4114,3.4143,3.4183,3.4203,3.425,3.4276,3.4314,3.432,3.4284,3.441,3.4362,3.4418,3.4419,3.4447,3.4445,3.4602,3.4462,3.4461,3.4461,3.4461,0,3.3952,3.4014,3.4019,3.4062,3.4131,3.4128,3.4198,3.4212,3.424,3.4288,3.4272,3.4318,3.4321,3.4369,3.4374,3.4448,3.4459,3.4467,3.4468,3.447,3.4469,3.4489,3.4483,3.4465,3.4464,3.4463,3.4463,0,3.4062,3.4067,3.4141,3.417,3.4178,3.4229,3.4254,3.4297,3.4306,3.4367,3.4381,3.4396,3.4452,3.4461,3.4526,3.453,3.4619,3.4612,3.4608,3.4607,3.4664,3.466,3.4841,3.4866,3.4707,3.4708,3.471,0,3.4136,3.4183,3.4216,3.4246,3.4264,3.4313,3.4343,3.4343,3.4375,3.4418,3.4456,3.451,3.4553,3.4643,3.4662,3.4713,3.4708,3.4768,3.4716,3.4717,3.4712,3.471,3.4716,3.4779,3.4781,3.4782,3.4783,0,3.4268,3.4269,3.4311,3.4356,3.4392,3.4428,3.4462,3.4488,3.4492,3.453,3.4586,3.4619,3.4686,3.4741,3.4792,3.4813,3.4801,3.4799,3.4815,3.4818,3.4815,3.482,3.4638,3.4795,3.4794,3.4793,3.4793,3.4792,3.4364,3.4406,3.4436,3.4485,3.451,3.4543,3.4585,3.4599,3.4645,3.4698,3.4696,3.4759,3.4794,3.4861,3.4885,3.4936,3.4917,3.494,3.4946,3.4952,3.4959,3.4805,3.4945,3.4945,3.4944,3.4944,3.4944,0,3.4498,3.4516,3.4561,3.4609,3.4648,3.4631,3.4668,3.4703,3.4757,3.479,3.4833,3.4899,3.4952,3.4976,3.503,3.5066,3.5062,3.508,3.5079,3.5085,3.4971,3.4953,3.5083,3.5083,3.5083,3.5083,3.5083,3.5083,3.4572,3.4642,3.4647,3.4732,3.4751,3.481,3.4833,3.4865,3.4891,3.4965,3.5009,3.5023,3.5053,3.5109,3.5159,3.5165,3.5187,3.5208,3.5212,3.5106,3.5092,3.5079,3.5062,3.5212,3.5213,3.5321,3.5322,3.5323]},{"header":{"parameterUnit":"m.s-1","parameterCategory":1,"la1":30.2991,"la2":30.254,"lo1":-89.0895,"lo2":-89.0444,"dy":0.0017,"dx":0.0017,"nx":28,"ny":28,"refTime":"2025-05-28T21:00:00:Z","depth":0,"parameterNumber":3,"parameterNumberName":"V-component_of_WINDS"},"data":[0,0,0,0,0,0,0,0,0,0,0,0,0,0,0,0,0,0,0,0,0,0,0,0,0,0,0,0,0,0,0,0,0,0,0,0,0,0,0,0,0,0,0,0,0,0,0,0,0,0,0,0,0,0,0,0,0,0,2.1703,2.1705,0,2.187,2.1872,2.1874,2.1823,2.182,2.1816,2.1813,2.1989,2.1996,2.2004,0,0,0,0,0,0,0,0,0,0,0,0,0,2.1344,2.135,2.1703,2.1705,2.1707,2.187,2.1872,2.1875,2.1824,2.182,2.1815,2.1811,2.1986,2.1995,2.2005,0,0,0,0,0,0,0,0,0,0,0,0,0,2.1504,2.1353,2.1703,2.1701,2.1703,2.1869,2.1872,2.1875,2.1825,2.1819,2.1814,2.1809,2.1983,2.1994,2.2006,2.2185,0,0,2.2043,2.2048,0,0,0,0,0,0,0,0,2.1495,2.1518,2.17,2.1702,2.1704,2.182,2.181,2.1979,2.1826,2.1779,2.1813,2.1807,2.1937,2.1953,2.1996,2.2194,2.2201,2.2044,2.2051,2.2056,2.2059,0,0,0,0,0,0,0,2.1484,2.151,2.1769,2.1702,2.1705,2.1694,2.1711,2.1842,2.1886,2.1782,2.1779,2.1799,2.1937,2.1984,2.1999,2.2204,2.2043,2.2054,2.2061,2.2066,2.2556,2.2562,0,0,0,0,0,0,2.1471,2.1501,2.1764,2.1774,2.1584,2.1704,2.1723,2.1788,2.1884,2.1893,2.1804,2.1796,2.1966,2.1985,2.2005,2.2221,2.2056,2.2067,2.2074,2.2551,2.2558,2.2564,0,0,0,0,0,0,2.1463,2.1495,2.1757,2.1637,2.1669,2.1716,2.179,2.1794,2.1841,2.19,2.1908,2.1843,2.1963,2.1989,2.214,2.2226,2.2073,2.2083,2.2544,2.2553,2.2561,2.2653,0,0,0,0,0,0,2.1453,2.1493,2.156,2.1639,2.1676,2.1889,2.1795,2.1802,2.1861,2.1853,2.1939,2.1948,2.1961,2.2123,2.2152,2.224,2.2093,2.2536,2.2548,2.2558,2.2643,2.2664,2.2682,0,0,0,0,0,2.1441,2.1581,2.1564,2.1596,2.1761,2.1894,2.1915,2.1925,2.1868,2.1937,2.1975,2.1946,2.2212,2.2139,2.2172,2.2264,2.2531,2.2544,2.2557,2.2634,2.266,2.2682,0,0,0,0,0,0,2.1513,2.1591,2.1573,2.1743,2.1812,2.1885,2.1972,2.1953,2.2041,2.203,2.204,2.206,2.2215,2.2255,2.2172,2.2442,2.2363,2.2383,2.241,2.2435,2.2455,2.2442,2.2103,0,0,0,0,0,2.1548,2.1648,2.1711,2.1855,2.189,2.1926,2.1984,2.1985,2.2058,2.2087,2.2136,2.2209,2.2308,2.2374,2.2469,2.2648,2.2666,2.2728,2.2747,2.2763,2.2781,2.2877,2.2905,2.2607,2.2607,2.2607,0,0,2.1623,2.1678,2.1741,2.1871,2.1924,2.2028,2.1951,2.2064,2.2141,2.2105,2.225,2.2289,2.2371,2.2537,2.2612,2.2574,2.2867,2.278,2.2792,2.2801,2.2894,2.2922,2.2947,2.2616,2.2615,2.2613,0,0,2.1812,2.1864,2.1988,2.2043,2.2125,2.2147,2.2177,2.2253,2.2277,2.2423,2.2397,2.249,2.2662,2.2721,2.2774,2.2984,2.296,2.3015,2.3118,2.3213,2.3236,2.3257,2.3331,2.3358,2.3032,2.3033,2.3033,0,2.1895,2.2049,2.2055,2.217,2.2228,2.2198,2.2325,2.2379,2.2488,2.2529,2.2485,2.2699,2.2753,2.2931,2.2982,2.3026,2.3061,2.3005,2.3232,2.3253,2.3272,2.3343,2.3371,2.3039,2.3038,2.3037,2.3037,0,2.2146,2.2254,2.2345,2.2449,2.2517,2.2638,2.2663,2.2732,2.2728,2.2755,2.2904,2.2967,2.3073,2.3116,2.3114,2.3295,2.3268,2.3228,2.3149,2.3307,2.3374,2.3401,2.3047,2.3045,2.3043,2.3042,0,0,2.2386,2.2491,2.2524,2.2571,2.2658,2.2742,2.2861,2.2964,2.3023,2.3099,2.32,2.3345,2.3308,2.3368,2.3372,2.3455,2.3616,2.3404,2.3406,2.3441,2.3818,2.3848,2.3879,2.3601,2.3606,2.361,2.3811,0,2.2581,2.2789,2.2798,2.2988,2.3087,2.306,2.3164,2.3229,2.3258,2.3347,2.3379,2.3482,2.3425,2.3461,2.3542,2.3579,2.3692,2.3565,2.3695,2.3699,2.3674,2.3914,2.3946,2.4132,2.3838,2.3842,2.3845,0,2.2837,2.2919,2.3118,2.3191,2.3233,2.3326,2.342,2.3506,2.358,2.3595,2.3661,2.3653,2.3776,2.3693,2.3862,2.3775,2.3829,2.3856,2.3863,2.3875,2.3781,2.3932,2.4192,2.422,2.3887,2.3883,2.388,0,2.299,2.3151,2.3291,2.3332,2.342,2.3486,2.3526,2.3595,2.3656,2.3739,2.3778,2.3876,2.3929,2.4005,2.4023,2.3961,2.4192,2.4111,2.4208,2.4208,2.4258,2.4255,2.453,2.4294,2.4294,2.4293,2.4292,0,2.3207,2.333,2.3361,2.3447,2.3583,2.3593,2.3729,2.3765,2.3826,2.3919,2.3902,2.399,2.4009,2.4101,2.4117,2.4254,2.4279,2.4295,2.4297,2.4296,2.4294,2.4331,2.4318,2.4301,2.4299,2.4297,2.4296,0,2.3401,2.3427,2.3577,2.3648,2.3668,2.3766,2.3827,2.391,2.3936,2.4054,2.4083,2.4124,2.4232,2.4258,2.4386,2.4397,2.4559,2.455,2.4534,2.4533,2.4628,2.4619,2.4937,2.4979,2.4716,2.4718,2.472,0,2.3537,2.3631,2.3711,2.3771,2.3814,2.3912,2.3973,2.3987,2.4052,2.4143,2.4215,2.432,2.4404,2.4577,2.462,2.4718,2.471,2.4815,2.4725,2.472,2.4711,2.4705,2.4714,2.4832,2.4835,2.4837,2.4839,0,2.3776,2.3784,2.3872,2.3966,2.404,2.4114,2.4186,2.4236,2.426,2.4334,2.4442,2.4508,2.4638,2.4743,2.4841,2.4884,2.4866,2.4867,2.4894,2.4894,2.488,2.4888,2.4579,2.4859,2.4857,2.4856,2.4855,2.4854,2.3945,2.4026,2.4095,2.4195,2.4249,2.4316,2.4397,2.4433,2.4523,2.4629,2.4632,2.475,2.4822,2.4952,2.5,2.5093,2.5061,2.5101,2.5111,2.5121,2.5129,2.4865,2.5111,2.5111,2.511,2.511,2.5109,0,2.4182,2.4224,2.4316,2.4415,2.4494,2.4468,2.4546,2.4613,2.4717,2.4785,2.4868,2.4993,2.5094,2.5144,2.5244,2.5309,2.5303,2.5335,2.533,2.534,2.5152,2.5118,2.5338,2.5338,2.5338,2.5338,2.5338,2.5338,2.4314,2.445,2.4466,2.463,2.4672,2.4787,2.4833,2.4895,2.4948,2.5088,2.5171,2.5203,2.5264,2.5368,2.546,2.5472,2.5509,2.5545,2.5553,2.5377,2.5353,2.5331,2.5299,2.5553,2.5554,2.5733,2.5735,2.5736]}]]